Regional Weather Roundup
Issued by NWS Wakefield, VA

Home | Current Version | Previous Version | Text Only | Print | Product List | Glossary On
Versions: 1 2 3 4 5 6 7 8 9 10 11 12 13 14 15 16 17 18 19 20 21 22 23 24 25 26 27
000
ASUS41 KAKQ 311410
RWRAKQ

REGIONAL WEATHER ROUNDUP
NATIONAL WEATHER SERVICE WAKEFIELD VA
1000 AM EDT FRI OCT 31 2014

Note: "fair" indicates few or no clouds below 12,000 feet with no
significant weather and/or obstructions to visibility. * = Denotes
station may not report precipitation (e.g., rain,snow,etc.),
thunder or fog.

VAZ042-051-052>054-056-311500-
NORTHERN VIRGINIA

CITY           SKY/WX    TMP DP  RH WIND       PRES   REMARKS
WASH NATIONAL  CLOUDY    51  40  65 NE3       30.00F
DULLES         PTSUNNY   44  40  85 CALM      29.99F
FORT BELVOIR   CLOUDY    45  40  83 CALM      30.00F
QUANTICO       PTSUNNY   45  40  82 NW6       30.01F
FREDERICKSBRG* MOSUNNY   45  39  82 CALM      29.98F
STAFFORD*      MOSUNNY   39  39 100 CALM      30.03F
WARRENTON      PTSUNNY   43  42  98 CALM      29.98F
CULPEPER*      PTSUNNY   45  39  81 CALM      29.99F
MANASSAS*      NOT AVBL
LEESBURG*      CLOUDY    46  45  93 CALM      30.00F
WINCHESTER     CLOUDY    46  36  66 CALM      29.99S
FRONT ROYAL*   CLOUDY    43  36  75 CALM      29.98F
LURAY*         CLOUDY    41  41 100 CALM      29.98F
$$

VAZ048-049-060>072-079>083-311500-
CENTRAL AND SOUTH CENTRAL VIRGINIA...AND NORTH CENTRAL NORTH CAROLINA

CITY           SKY/WX    TMP DP  RH WIND       PRES   REMARKS
RICHMOND       CLOUDY    50  41  71 N5        29.97F
CHESTERFIELD*  CLOUDY    48  34  57 NE5       29.98F
PETERSBURG*    CLOUDY    48  41  76 N5        29.98S
HANOVER        CLOUDY    48  41  76 CALM      29.99F
TAPPAHANNOCK*  CLOUDY    49  42  75 CALM      29.98F
CHARLOTTSVILLE CLOUDY    45  37  73 N3        29.97F
ORANGE*        PTSUNNY   50  37  62 CALM      29.99F
LOUISA*        CLOUDY    46  37  71 CALM      29.96F
FARMVILLE*     SUNNY     48  37  66 N5        29.96S
CREWE*         SUNNY     47  38  68 E3        29.96F
FORT PICKETT*  SUNNY     49  40  70 NE9       29.96F
LUNENBURG*     SUNNY     48  39  70 NE3       29.96S
SOUTH HILL*    SUNNY     52  43  71 N3        30.00F
LAWRENCEVILLE* SUNNY     49  42  76 NE7       29.95F
ROANOKE RAPIDS SUNNY     50  43  76 N6        29.95F
RALEIGH        MOSUNNY   50  41  71 NE5       29.96S
$$

VAZ088>098-311500-
SOUTHEAST VIRGINIA

CITY           SKY/WX    TMP DP  RH WIND       PRES   REMARKS
NORFOLK        CLOUDY    57  38  48 NE13      29.93F
VIRGINIA BEACH CLOUDY    58  46  64 N12       29.92S
NORFOLK NAVAL  CLOUDY    60  38  43 NE13      29.94F
WEST POINT*    CLOUDY    51  47  86 NW3       29.98F
NEWPORT NEWS   CLOUDY    55  48  77 N5        29.95S
LANGLEY AFB    CLOUDY    57  41  54 NE9       29.94F
FORT EUSTIS    CLOUDY    53  49  87 N5        29.93F
WILLIAMSBURG*  CLOUDY    52  48  87 N3        29.97S
HR EXEC AP*    CLOUDY    52  50  93 CALM      29.95F
FRANKLIN*      CLOUDY    48  48 100 N3        29.94F
WAKEFIELD      CLOUDY    50  45  83 N3        29.95F
$$

VAZ020-022-025-037-045-311500-
WEST CENTRAL AND SOUTHWEST VIRGINIA

CITY           SKY/WX    TMP DP  RH WIND       PRES   REMARKS
STAUNTON*      CLOUDY    41  36  84 CALM      29.99F
HOT SPRINGS VA CLOUDY    36  31  82 S6        29.90F
LYNCHBURG      SUNNY     48  36  63 VRB5      29.98F
DANVILLE       SUNNY     50  36  58 NE5       29.98F
SOUTH BOSTON*  NOT AVBL
MARTINSVILLE   CLOUDY    44  41  90 CALM      30.00F
ROANOKE        PTSUNNY   45  36  70 CALM      30.00F
BLACKSBURG     CLOUDY    39  39 100 CALM      29.98F
DUBLIN*        CLOUDY    39  37  95 CALM      29.98F
MARION*        CLOUDY    41  37  86 E5        29.97F
HILLSVILLE*    CLOUDY    37  35  93 S3        29.95F
RICHLANDS*     CLOUDY    42  37  80 CALM      29.94S
WISE*          CLOUDY    43  34  70 CALM      29.96S
ABINGDON*      CLOUDY    45  39  78 SE3       29.95S
$$

MDZ021>025-VAZ099-100-311500-
SOUTHERN MARYLAND AND THE DELMARVA PENINSULA

CITY           SKY/WX    TMP DP  RH WIND       PRES   REMARKS
PATUXENT RIVER CLOUDY    51  40  65 E10       29.97F
BAY BRIDGE APT   N/A     50  34  53 NE5       30.00F
LEONARDTOWN    CLOUDY    48  41  76 CALM      29.99F
DOVER          CLOUDY    48  41  75 N8        29.97S
GEORGETOWN     CLOUDY    50  40  68 NE7       29.98F
EASTON         CLOUDY    50  39  66 E9        30.02F
CAMBRIDGE      CLOUDY    52  37  58 NE5       29.98F
SALISBURY      CLOUDY    50  41  71 NE6       29.97F
OCEAN CITY     CLOUDY    52  42  69 N8        29.95F
WALLOPS ISLAND CLOUDY    50  40  68 NE9       29.95F
ACCOMACK*      CLOUDY    48  37  66 N6        29.94F
$$

NCZ012>017-030>032-311500-
EASTERN NORTH CAROLINA

CITY           SKY/WX    TMP DP  RH WIND       PRES   REMARKS
ELIZABETH CITY CLOUDY    59  48  67 N13       29.91F
AHOSKIE*       NOT AVBL
EDENTON*       CLOUDY    54  49  82 N7        29.92F
CURRITUCK*     CLOUDY    57  48  71 N8        29.92F HAZE
KILL DEVIL HLS CLOUDY    60  46  59 N10G21    29.88F
MANTEO         CLOUDY    60  47  62 N13G21    29.89F
CAPE HATTERAS  LGT RAIN  56  54  93 NE13G23   29.84F FOG
TARBORO*       SUNNY     53  46  79 N7        29.94F
GOLDSBORO      SUNNY     54  49  83 N7        29.91F
WASHINGTON     MOSUNNY   52  47  83 N6        29.91F
GREENVILLE     SUNNY     54  46  76 NE7       29.94F
NEW BERN       MOSUNNY   57  47  69 N9        29.91S
WILMINGTON     SUNNY     58  48  69 N9        29.90F
$$

VAZ048-311500-
ELSEWHERE

CITY           SKY/WX    TMP DP  RH WIND       PRES   REMARKS
HARRISBURG PA  CLOUDY    47  35  63 E6        30.00F
BALTIMORE      CLOUDY    50  38  63 E9        29.99F
ANNAPOLIS      CLOUDY    50  36  58 NE8       30.00S
ANDREWS AFB    CLOUDY    48  39  70 E9        29.98F
WILMINGTON DE  MOSUNNY   48  37  65 NE8       30.01F
PHILADELPHIA   PTSUNNY   49  36  61 NE8       30.00F
WILDWOOD NJ*   CLOUDY    46  36  66 N9        29.98F
ATLANTIC CITY  CLOUDY    46  39  76 N9        29.98F
HENDERSON NC   SUNNY     48  40  73 NE7       29.96F
GREENSBORO     CLOUDY    46  36  68 N3        29.97S
ROCKY MOUNT    SUNNY     53  44  71 N7        29.94F
FAYETTEVILLE   SUNNY     53  44  71 N9        29.94S
CHARLOTTE      MOSUNNY   49  38  65 NE6       29.97F
$$

VAZ100-311500-
MARINE

STATION/POSITION TIME  TEMP    WIND        PRES    WAVE   SWELL
                       AIR SEA DIR/SP/G            HT/PER HT/PER
                 (UTC) (F)     (DEG/KT/KT) (MB)    (FT/S) (FT/S)
44066 TX TWR #4  1400   57 64   40/  8/ 10 1014.4F   2/ 5   2/ 5
CAPE MAY NJ      1400   47 63   30/  4/  7 1014.6F
LEWES DE         1400   51 57   20/ 11/ 13 1014.8F
15NM E FENWICK I 1400   54 63              1014.0F   2/ 4
OCEAN-CITY-INLET 1400   54 61   30/  7/ 11 1014.2F
WACHAPREAGUE VA  1400   50 59  360/  5/ 10 1013.9F
THOMAS POINT MD  1400   49 60   50/ 10/ 10 1016.7F
GOOSES REEF MD   1400   51     100/  8/ 10 1015.8F
COVE POINT MD    1400   49     100/ 14/ 16 1015.0F
SOLOMONS ISLAND  1400      62                N/A
BISHOPS HEAD MD  1400   51 57   30/ 11/ 15 1014.2F
PINEY POINT MD   1400           60/  6/  9   N/A
POTOMAC MD       1400   54      80/ 14/ 16 1014.0S
CAMBRIDGE MD     1400   50 59   60/  9/ 12 1014.9F
LEWISETTA VA     1400   54 60   60/ 11/ 13 1014.2F
RAPPAHANNOCK LGT 1400           30/ 18/ 19 1014.4F
STINGRAY PT      1400   56      60/ 14/ 16 1014.7S
YORK RVR RNG VA  1400   56      60/ 13/ 15 1013.5R
YORKTOWN VA      1400   53 63   10/  7/  7 1013.8S
JAMESTOWN VA     1400   49      20/  6/  8   N/A
DOMINION TERM VA 1400   54      30/  4/  6 1013.9S
KIPTOPEKE VA     1400      66   40/  4/  7   N/A
CHES BAY BRIDGE  1400   57 63   20/ 12/ 15 1013.0S
CHESAPEAKE LGHT  1300   58      10/ 19/ 21 1013.7F
WILLOUBY STN VA  1400   57      30/ 11/ 13 1012.5R
S CRANEY ISL VA  1400           10/ 11/ 13 1013.4R
CAPE HENRY BUOY  1400      65                N/A     3/ 4
1ST LANDING BUOY 1400   57      20/ 14/ 17 1013.2F
CAPE CHARLES BUO 1400      65                N/A     3/ 4
64NM E OF VA BCH 1400   61 66   40/ 16/ 19 1011.6F   3/ 4   2/ 7
DUCK PIER NC     1400   60 65   30/ 16/ 20 1011.7F
44100 DUCK FRF   1400      67                N/A     4/ 5
OREGON INLET NC  1400   60 66   20/ 16/ 23 1011.4S
HATTERAS NC      1400   60 65   20/ 20/ 26 1010.7F
DIAMOND SHLS NC  1400   65      10/ 27/ 33 1008.4F   6/ 6   2/12
CAPE LOOKOUT NC  1300   60      20/ 20/ 24 1011.0S
$$



USA.gov is the U.S. government's official web portal to all federal, state and local government web resources and services.